星链-1657 (STARLINK-1657 )

导读 | 豆包AI

STARLINK-1657是美国于2020年9月3日发射的星链卫星,隶属于SpaceX公司的星链互联网星座项目。星链项目旨在构建全球卫星互联网,为全球偏远地区、海洋等网络薄弱区域提供高速网络服务。该卫星通过部署在近地轨道,和同星座其他卫星协同工作,推动全球通信网络覆盖。历经多年运行,它仍承担着星链星座组网通信相关任务。

Basic Information
目录编号:
46354
目录名称:
STARLINK-1657
国际标识:
2020-062AF
轨道中心:
EARTH
卫星名称:
星链-1657
卫星全名:
星链-1657 (STARLINK-1657 )
卫星状态:
已陨落 最后检测时间 2026-04-10
发射日期:
2020-09-03 UTC
国别 :
美国 (US)
星等 :
--
Orbit Information
数据来源 国际轨道数据
星历时间: 2026-04-10T08:42:05+0800
轨道信息已过期20天
半长轴: 6537.04km
偏心率: 0.0004988
轨道倾角: 53.023°
近地点辐角 303.669°
升交点赤经 167.830°
平近点角 56.388°
近地点: 155.642km
远地点: 162.164km
周期: 87.666分钟
每日圈数: 16.425971
Detailed Information
固有亮度:
5
最大亮度:
2.5
卫星平台:
Starlink V1.0
覆盖范围:
全球
运营商:
太空探索技术公司
运营商所在国:
美国
制造商(研发单位):
太空探索技术公司
制造商所在国:
美国
使用方式:
暂无
Satellite Introduction
星链(Starlink)计划是由太空探索技术公司(SpaceX)提出的一个巨型低轨卫星互联网星座项目,计划在2019年至2024年间在太空搭建由约1.2万颗卫星组成的“星链”网络,其中1584颗将部署在地球上空550千米处的近地轨道,并从2020年开始工作。该卫星仍在工作。